This is the latest recevied weather packets stored in our database for station/object ALANSN-2. If no packets are shown the sender has not sent any weather packets the latest 10 day(s).
| Time | Temp. | Humidity | Pressure | Rain* | Wind** | Luminosity | Snow |
|---|---|---|---|---|---|---|---|
| 1787763719 | 21.67° C | 89% | 1020.3 hPa | 0 mm | - | 131 W/m² | - |
| 1787763420 | 21.11° C | 88% | 1020.5 hPa | 0 mm | - | 140 W/m² | - |
| 1787763120 | 21.11° C | 90% | 1020.5 hPa | 0 mm | - | 141 W/m² | - |
| 1787762820 | 21.11° C | 90% | 1020.5 hPa | 0 mm | - | 141 W/m² | - |
| 1787762520 | 21.11° C | 89% | 1020.5 hPa | 0 mm | - | 81 W/m² | - |
| 1787762220 | 20.56° C | 91% | 1020.5 hPa | 0 mm | - | 91 W/m² | - |
| 1787761918 | 20.56° C | 91% | 1020.5 hPa | 0 mm | - | 91 W/m² | - |
| 1787761620 | 20.56° C | 90% | 1020.7 hPa | 0 mm | - | 85 W/m² | - |
| 1787761320 | 20.56° C | 90% | 1020.6 hPa | 0 mm | - | 88 W/m² | - |
| 1787761020 | 20.56° C | 90% | 1020.6 hPa | 0 mm | - | 88 W/m² | - |
| 1787760719 | 20.56° C | 90% | 1020.9 hPa | 0 mm | - | 86 W/m² | - |
| 1787760420 | 20.56° C | 90% | 1020.8 hPa | 0 mm | - | 120 W/m² | - |
| 1787760120 | 20.56° C | 90% | 1020.8 hPa | 0 mm | - | 120 W/m² | - |
| 1787759820 | 20.56° C | 90% | 1020.9 hPa | 0 mm | - | 110 W/m² | - |
| 1787759520 | 20.56° C | 90% | 1020.8 hPa | 0 mm | - | 170 W/m² | - |
| 1787759220 | 20.56° C | 90% | 1020.8 hPa | 0 mm | - | 170 W/m² | - |
| 1787758920 | 20° C | 90% | 1020.9 hPa | 0 mm | - | 169 W/m² | - |
| 1787758618 | 20° C | 92% | 1020.8 hPa | 0 mm | - | 95 W/m² | - |
| 1787758320 | 20° C | 92% | 1020.8 hPa | 0 mm | - | 95 W/m² | - |
| 1787758017 | 20° C | 91% | 1021.1 hPa | 0 mm | - | 85 W/m² | - |
| 1787757717 | 19.44° C | 94% | 1021.1 hPa | 0 mm | - | 54 W/m² | - |
| 1787757420 | 19.44° C | 94% | 1021.1 hPa | 0 mm | - | 54 W/m² | - |
| 1787757120 | 19.44° C | 94% | 1020.8 hPa | 0 mm | - | 52 W/m² | - |
| 1787756818 | 18.89° C | 96% | 1021.2 hPa | 0 mm | - | 85 W/m² | - |
| 1787756520 | 18.89° C | 96% | 1021.2 hPa | 0 mm | - | 85 W/m² | - |
* Rain latest hour (hover to see other rain measurements)
** Current wind speed in m/s (hover to see current wind gust speed)